Mineral Wells, TX

12:35 AM CDT on May 23, 2017 (GMT -0500)
Mineral Wells

Weather History for KMWL - July, 2013

Change the Weather History Date:

Tuesday, July 16, 2013

  Actual Average Record
Temperature  
Mean Temperature 76 °F -  
Max Temperature 82 °F 95 °F 105 °F (2011)
Min Temperature 71 °F 71 °F 66 °F (2012)
Cooling Degree Days 12    
Growing Degree Days 26 (Base 50)    
Moisture  
Dew Point 71 °F    
Average Humidity 89    
Maximum Humidity 100    
Minimum Humidity 69    
Precipitation  
Precipitation 0.24 in - - ()
Sea Level Pressure  
Sea Level Pressure 30.09 in    
Wind  
Wind Speed 9 mph (ESE)    
Max Wind Speed 16 mph    
Max Gust Speed 22 mph    
Visibility 7 miles    
Events Rain , Thunderstorm    
Averages and records for this station are not official NWS values.
T = Trace of Precipitation, MM = Missing Value Source: NWS Daily Summary

Daily Weather History Graph

Daily Weather History Graph

Search for Another Location

Airport or City:

Trip Planner

Search our weather history database for the weather conditions in past years. The results will help you decide how hot, cold, wet, or windy it might be!

Date:

Astronomy

Jul. 16, 2013 Rise Set
Actual Time 6:35 AM CDT 8:40 PM CDT
Civil Twilight 6:07 AM CDT 9:08 PM CDT
Nautical Twilight 5:33 AM CDT 9:42 PM CDT
Astronomical Twilight 4:57 AM CDT 10:18 PM CDT
Moon 2:31 PM CDT (7/16) 12:56 AM CDT (7/16)
Length of Visible Light 15h 00m
Length of Day
14h 04m
First Quarter, 56% of the Moon is Illuminated
Jul 16
First Quarter
Jul 22
Full
Jul 29
Last Quarter
Aug 6
New
Aug 14
First Quarter

Hourly Weather History & Observations

Time (CDT) Temp. Heat Index Dew Point Humidity Pressure Visibility Wind Dir Wind Speed Gust Speed Precip Events Conditions
12:30 AM 71.6 °F - 71.6 °F 100% 30.08 in 2.0 mi ESE 11.5 mph - 0.05 in Rain Heavy Rain
12:42 AM 71.6 °F - 71.6 °F 100% 30.08 in 3.0 mi ESE 16.1 mph 21.9 mph 0.10 in Rain Rain
12:49 AM 71.6 °F - 71.6 °F 100% 30.08 in 2.5 mi East 12.7 mph 21.9 mph 0.14 in Rain Light Rain
12:53 AM 72.0 °F - 71.1 °F 97% 30.05 in 3.0 mi SE 10.4 mph - 0.14 in Rain Light Rain
1:07 AM 71.6 °F - 71.6 °F 100% 30.08 in 3.0 mi SE 8.1 mph - 0.01 in Rain Light Rain
1:53 AM 72.0 °F - 71.1 °F 97% 30.04 in 5.0 mi East 5.8 mph - 0.02 in Rain Light Rain
2:09 AM 71.6 °F - 71.6 °F 100% 30.07 in 5.0 mi East 6.9 mph - 0.00 in Rain Light Rain
2:53 AM 72.0 °F - 70.0 °F 93% 30.03 in 6.0 mi East 6.9 mph - 0.00 in   Mostly Cloudy
3:20 AM 71.6 °F - 69.8 °F 94% 30.06 in 6.0 mi East 5.8 mph - N/A   Mostly Cloudy
3:46 AM 71.6 °F - 69.8 °F 94% 30.06 in 7.0 mi SE 4.6 mph - 0.00 in Rain Light Rain
3:53 AM 72.0 °F - 70.0 °F 93% 30.04 in 8.0 mi SE 4.6 mph - 0.00 in   Overcast
4:08 AM 71.6 °F - 71.6 °F 100% 30.06 in 7.0 mi ESE 8.1 mph - 0.00 in Rain Light Rain
4:36 AM 71.6 °F - 71.6 °F 100% 30.07 in 6.0 mi ESE 9.2 mph - 0.00 in   Overcast
4:53 AM 71.1 °F - 70.0 °F 96% 30.04 in 6.0 mi ESE 9.2 mph - 0.00 in   Overcast
5:53 AM 71.1 °F - 70.0 °F 96% 30.06 in 8.0 mi ESE 9.2 mph - 0.00 in   Overcast
6:53 AM 71.1 °F - 70.0 °F 96% 30.07 in 6.0 mi ESE 8.1 mph - N/A   Overcast
7:53 AM 72.0 °F - 71.1 °F 97% 30.09 in 5.0 mi ESE 8.1 mph - N/A   Overcast
8:53 AM 72.0 °F - 71.1 °F 97% 30.11 in 5.0 mi ESE 9.2 mph - N/A   Overcast
9:53 AM 73.0 °F - 71.1 °F 93% 30.11 in 5.0 mi ESE 8.1 mph - N/A   Overcast
10:48 AM 75.2 °F - 71.6 °F 89% 30.15 in 10.0 mi SE 8.1 mph - N/A   Overcast
10:53 AM 75.0 °F - 72.0 °F 90% 30.12 in 10.0 mi SE 10.4 mph - N/A   Overcast
11:38 AM 78.8 °F - 71.6 °F 78% 30.15 in 10.0 mi SE 11.5 mph - N/A   Mostly Cloudy
11:53 AM 79.0 °F - 72.0 °F 79% 30.12 in 10.0 mi SE 10.4 mph - N/A   Mostly Cloudy
12:20 PM 80.6 °F 84.6 °F 71.6 °F 74% 30.15 in 10.0 mi SE 12.7 mph - N/A   Scattered Clouds
12:53 PM 80.1 °F 83.6 °F 71.1 °F 74% 30.11 in 10.0 mi SE 9.2 mph - N/A Thunderstorm Mostly Cloudy
1:46 PM 77.0 °F - 71.6 °F 83% 30.15 in 10.0 mi East 5.8 mph - 0.04 in   Partly Cloudy
1:53 PM 75.9 °F - 71.1 °F 85% 30.11 in 5.0 mi SE 6.9 mph - 0.05 in Rain Rain
2:53 PM 79.0 °F - 73.9 °F 84% 30.10 in 10.0 mi SE 4.6 mph - 0.02 in   Scattered Clouds
3:53 PM 82.0 °F 86.7 °F 72.0 °F 71% 30.08 in 10.0 mi ESE 8.1 mph - 0.00 in   Clear
4:53 PM 82.9 °F 88.0 °F 72.0 °F 69% 30.08 in 10.0 mi ESE 10.4 mph - N/A   Mostly Cloudy
5:53 PM 81.0 °F 85.2 °F 72.0 °F 74% 30.07 in 10.0 mi SE 5.8 mph - N/A   Clear
6:53 PM 81.0 °F 85.2 °F 72.0 °F 74% 30.08 in 10.0 mi NE 3.5 mph - N/A   Clear
7:53 PM 81.0 °F 85.2 °F 72.0 °F 74% 30.08 in 10.0 mi NE 3.5 mph - N/A   Clear
8:53 PM 78.1 °F - 70.0 °F 76% 30.11 in 10.0 mi East 9.2 mph 20.7 mph N/A   Scattered Clouds
9:53 PM 73.9 °F - 69.1 °F 85% 30.14 in 10.0 mi ENE 3.5 mph - 0.01 in Rain Light Rain
10:53 PM 73.9 °F - 70.0 °F 87% 30.14 in 10.0 mi NE 4.6 mph - 0.00 in   Mostly Cloudy
11:53 PM 73.9 °F - 70.0 °F 87% 30.15 in 10.0 mi Calm Calm - N/A   Partly Cloudy